This is the latest recevied weather packets stored in our database for station/object DD3UTS-13. If no packets are shown the sender has not sent any weather packets the latest 10 day(s).
| Time | Temp. | Humidity | Pressure | Rain* | Wind** | Luminosity | Snow |
|---|---|---|---|---|---|---|---|
| 1777807532 | 26.67° C | 24% | 1014 hPa | 0 mm | - | 565 W/m² | - |
| 1777807231 | 26.11° C | 24% | 1014 hPa | 0 mm | - | 572 W/m² | - |
| 1777806931 | 26.11° C | 25% | 1014.1 hPa | 0 mm | - | 525 W/m² | - |
| 1777806632 | 26.11° C | 24% | 1014.1 hPa | 0 mm | - | 480 W/m² | - |
| 1777806331 | 26.67° C | 25% | 1014.1 hPa | 0 mm | - | 565 W/m² | - |
| 1777806031 | 26.67° C | 24% | 1014.2 hPa | 0 mm | - | 568 W/m² | - |
| 1777805732 | 26.67° C | 26% | 1014.3 hPa | 0 mm | - | 559 W/m² | - |
| 1777805432 | 26.67° C | 24% | 1014.2 hPa | 0 mm | - | 556 W/m² | - |
| 1777805132 | 26.67° C | 25% | 1014.3 hPa | 0 mm | - | 557 W/m² | - |
| 1777804832 | 26.11° C | 25% | 1014.3 hPa | 0 mm | - | 562 W/m² | - |
| 1777804532 | 26.11° C | 26% | 1014.4 hPa | 0 mm | - | 563 W/m² | - |
| 1777804231 | 26.11° C | 26% | 1014.4 hPa | 0 mm | - | 558 W/m² | - |
| 1777803932 | 26.11° C | 26% | 1014.4 hPa | 0 mm | - | 550 W/m² | - |
| 1777803632 | 26.11° C | 27% | 1014.5 hPa | 0 mm | - | 553 W/m² | - |
| 1777803332 | 26.11° C | 26% | 1014.6 hPa | 0 mm | - | 561 W/m² | - |
| 1777803032 | 26.11° C | 28% | 1014.6 hPa | 0 mm | - | 554 W/m² | - |
| 1777802731 | 26.11° C | 28% | 1014.2 hPa | 0 mm | - | 554 W/m² | - |
| 1777802431 | 25.56° C | 27% | 1014.3 hPa | 0 mm | - | 560 W/m² | - |
| 1777802132 | 25.56° C | 26% | 1014.4 hPa | 0 mm | - | 558 W/m² | - |
| 1777801832 | 25.56° C | 28% | 1014.4 hPa | 0 mm | - | 547 W/m² | - |
| 1777801531 | 25.56° C | 28% | 1014.4 hPa | 0 mm | - | 523 W/m² | - |
| 1777801232 | 25.56° C | 27% | 1014.5 hPa | 0 mm | - | 520 W/m² | - |
| 1777800932 | 25.56° C | 28% | 1014.4 hPa | 0 mm | - | 503 W/m² | - |
| 1777800632 | 25.56° C | 26% | 1014.6 hPa | 0 mm | - | 489 W/m² | - |
| 1777800332 | 25.56° C | 27% | 1014.6 hPa | 0 mm | - | 491 W/m² | - |
* Rain latest 24 hours (hover to see other rain measurements)
** Current wind speed in m/s (hover to see current wind gust speed)